User: anonymous   Login
Location: La Brionne
(46.1728°N, 1.7849°E)
Time: 12:46:40
(UTC+00:00)
Language:

Cosmos 1943 Rocket - Orbit

View from above orbital plane
View from above orbital plane
View from above satellite
View from above satellite

Ground track
Ground track

The orbit data is extracted from the following two-line orbital elements,

1 19120U 88039B   21265.41074011 -.00000093  00000-0 -21093-4 0  9998
2 19120  71.0113 272.3756 0023632 314.6240  45.2957 14.19225056727199
Epoch (UTC): 22 September 2021 09:51:27
Eccentricity: 0.0023632
inclination: 71.0113°
perigee height: 811 km
apogee height: 845 km
right ascension of ascending node: 272.3756°
argument of perigee: 314.6240°
revolutions per day: 14.19225056
mean anomaly at epoch: 45.2957°
orbit number at epoch: 72719

The dashed part of the orbit path shows where the satellite is in the earth's shadow,  

DLR